Starlink 11141

operational
NORAD ID: 60066 Int'l Des: 2024-113 Owner: SPXS Country: US Constellation: starlink
LEOCIRCULAR

关于 Starlink 11141

正在加载描述...

实时位置

正在加载3D地球...

即将过境

高度历史

Altitude vs Time

uPlot chart will show altitude changes over time

两行轨道根数

1 60066U 24113H 25353.90456972 .00002050 00000-0 21776-4 0 9993
2 60066 53.1571 224.2587 0001026 82.6325 277.4809 15.69708827 87035
Epoch: Dec 19, 2025 • Age: 12 hours

当前状态

高度 362.5 km
速度 7.70 km/s
星下点 38.69°N, 16.83°E
发射日期 Jun 19, 2024
运行时间 1.5 years
类型 internet

技术详情

分类 Payload
质量 960.00 kg
干质量 910.00 kg
总质量 960.00 kg
长度 0.30 m
直径 4.10 m
跨度 29.00 m
形状 Box + pan
制造商 SPXS
平台类型 Starlink V2MD
阶段状态 In Orbit
所有者/国家 SPXS/US

大型星座

Loading constellations...